N2PT KSAN-KCRQ

Flight info

Callsign N2PT
Flight time 0h 15m
Altitude VFR/030
Route
Aircraft C172/L-DOV/C

Departure

Time 2026-04-21 06:05
Airport San Diego International Airport (KSAN)

Arrival

Time 2026-04-21 06:20
Airport McClellan-Palomar Airport (KCRQ)
Time Latitude Longitude Altitude Speed Heading
2026-04-21 05:57 32.73339 -117.17874 27 ft 0 kts 185°
2026-04-21 06:00 32.73337 -117.17888 26 ft 3 kts 292°
2026-04-21 06:01 32.73342 -117.17902 26 ft 4 kts 290°
2026-04-21 06:01 32.73347 -117.17949 34 ft 9 kts 212°
2026-04-21 06:01 32.73269 -117.17975 28 ft 16 kts 161°
2026-04-21 06:01 32.73203 -117.17845 27 ft 21 kts 104°
2026-04-21 06:02 32.73166 -117.17711 28 ft 14 kts 106°
2026-04-21 06:02 32.73131 -117.17591 27 ft 16 kts 130°
2026-04-21 06:02 32.73051 -117.17528 28 ft 12 kts 173°
2026-04-21 06:02 32.73018 -117.17564 28 ft 0 kts 286°
2026-04-21 06:03 32.73094 -117.17868 25 ft 62 kts 285°
2026-04-21 06:04 32.73177 -117.18238 102 ft 72 kts 287°
2026-04-21 06:04 32.73311 -117.18873 262 ft 80 kts 284°
2026-04-21 06:04 32.73421 -117.19553 427 ft 93 kts 288°
2026-04-21 06:04 32.73608 -117.20346 549 ft 102 kts 290°
2026-04-21 06:05 32.73860 -117.21147 704 ft 105 kts 292°
2026-04-21 06:05 32.74086 -117.21912 1049 ft 94 kts 292°
2026-04-21 06:05 32.74250 -117.22672 1222 ft 102 kts 283°
2026-04-21 06:05 32.74364 -117.23517 1374 ft 105 kts 278°
2026-04-21 06:06 32.74446 -117.24434 1393 ft 114 kts 279°
2026-04-21 06:06 32.74590 -117.25378 1403 ft 119 kts 285°
2026-04-21 06:06 32.74861 -117.26288 1498 ft 116 kts 293°
2026-04-21 06:06 32.75131 -117.27210 1426 ft 126 kts 292°
2026-04-21 06:07 32.75572 -117.28128 1391 ft 116 kts 313°
2026-04-21 06:07 32.76188 -117.28667 1581 ft 111 kts 332°
2026-04-21 06:07 32.76888 -117.29081 1694 ft 110 kts 336°
2026-04-21 06:07 32.77560 -117.29442 1930 ft 104 kts 340°
2026-04-21 06:08 32.78242 -117.29658 2104 ft 104 kts 346°
2026-04-21 06:08 32.78984 -117.29850 2152 ft 113 kts 348°
2026-04-21 06:08 32.79754 -117.29994 2301 ft 110 kts 353°
2026-04-21 06:08 32.80511 -117.30109 2442 ft 110 kts 353°
2026-04-21 06:09 32.81258 -117.30166 2597 ft 108 kts 356°
2026-04-21 06:09 32.82096 -117.30236 2374 ft 125 kts 356°
2026-04-21 06:09 32.82939 -117.30305 2229 ft 120 kts 356°
2026-04-21 06:09 32.83794 -117.30359 1962 ft 124 kts 358°
2026-04-21 06:10 32.84640 -117.30371 1790 ft 120 kts
2026-04-21 06:10 32.85465 -117.30340 1682 ft 113 kts
2026-04-21 06:10 32.86202 -117.30341 1716 ft 103 kts 358°
2026-04-21 06:10 32.86895 -117.30400 1745 ft 97 kts 354°
2026-04-21 06:11 32.87552 -117.30485 1800 ft 93 kts 354°
2026-04-21 06:11 32.88208 -117.30591 1770 ft 98 kts 350°
2026-04-21 06:11 32.88850 -117.30729 1806 ft 95 kts 350°
2026-04-21 06:11 32.89483 -117.30806 1873 ft 89 kts 357°
2026-04-21 06:12 32.90094 -117.30901 2021 ft 89 kts 343°
2026-04-21 06:12 32.90731 -117.31166 2067 ft 106 kts 337°
2026-04-21 06:12 32.91392 -117.31483 2274 ft 102 kts 338°
2026-04-21 06:12 32.92098 -117.31747 2363 ft 109 kts 344°
2026-04-21 06:13 32.92810 -117.31987 2579 ft 104 kts 347°
2026-04-21 06:13 32.93525 -117.32215 2712 ft 107 kts 343°
2026-04-21 06:13 32.94234 -117.32475 2876 ft 106 kts 345°
2026-04-21 06:13 32.94970 -117.32642 2989 ft 110 kts 354°
2026-04-21 06:14 32.95735 -117.32633 3148 ft 108 kts
2026-04-21 06:14 32.96467 -117.32570 3336 ft 104 kts
2026-04-21 06:14 32.97211 -117.32448 3413 ft 112 kts
2026-04-21 06:14 32.97986 -117.32324 3510 ft 112 kts
2026-04-21 06:15 32.98783 -117.32208 3475 ft 123 kts
2026-04-21 06:15 32.99607 -117.32050 3483 ft 116 kts
2026-04-21 06:15 33.00444 -117.31861 3382 ft 126 kts 11°
2026-04-21 06:15 33.01313 -117.31636 3221 ft 126 kts 12°
2026-04-21 06:16 33.02129 -117.31389 2963 ft 121 kts
2026-04-21 06:16 33.02943 -117.31222 2912 ft 109 kts
2026-04-21 06:16 33.03694 -117.31078 2805 ft 112 kts
2026-04-21 06:16 33.04465 -117.30907 2666 ft 114 kts 11°
2026-04-21 06:17 33.05217 -117.30736 2446 ft 110 kts 13°
2026-04-21 06:17 33.05833 -117.30341 2365 ft 102 kts 41°
2026-04-21 06:17 33.06357 -117.29793 2345 ft 101 kts 35°
2026-04-21 06:17 33.06974 -117.29318 2408 ft 111 kts 29°
2026-04-21 06:18 33.07724 -117.28954 2379 ft 122 kts 15°
2026-04-21 06:18 33.08491 -117.28763 2482 ft 119 kts 36°
2026-04-21 06:18 33.09061 -117.28039 2555 ft 117 kts 48°
2026-04-21 06:18 33.09596 -117.27307 2476 ft 115 kts 50°
2026-04-21 06:19 33.10121 -117.26608 2270 ft 116 kts 45°
2026-04-21 06:19 33.10764 -117.25976 1928 ft 124 kts 34°
2026-04-21 06:19 33.11491 -117.25384 1456 ft 125 kts 29°
2026-04-21 06:19 33.12271 -117.25169 1170 ft 106 kts 354°
2026-04-21 06:20 33.12888 -117.25529 852 ft 100 kts 304°
2026-04-21 06:20 33.13059 -117.26321 530 ft 99 kts 269°
2026-04-21 06:20 33.12985 -117.26990 394 ft 66 kts 261°
2026-04-21 06:20 33.12922 -117.27445 319 ft 44 kts 262°
2026-04-21 06:21 33.12869 -117.27749 316 ft 32 kts 258°
2026-04-21 06:21 33.12793 -117.27947 319 ft 20 kts 226°
2026-04-21 06:21 33.12755 -117.27947 319 ft 0 kts 112°
2026-04-21 06:22 33.12755 -117.27945 319 ft 1 kts 102°
2026-04-21 06:22 33.12762 -117.27896 319 ft 15 kts 74°
2026-04-21 06:22 33.12791 -117.27715 320 ft 24 kts 78°
2026-04-21 06:22 33.12747 -117.27669 322 ft 6 kts 210°
2026-04-21 06:23 33.12733 -117.27679 323 ft 0 kts 117°